Abbotsford, British Columbia

12:56 AM PDT on April 22, 2018 (GMT -0700)
Abbotsford

Weather History for CYXX - July, 2013

Change the Weather History Date:

Saturday, July 6, 2013

  Actual Average Record
Temperature  
Mean Temperature 65 °F -  
Max Temperature 77 °F 74 °F 84 °F (1999)
Min Temperature 53 °F 52 °F 46 °F (1996)
Growing Degree Days 15 (Base 50)    
Moisture  
Dew Point 56 °F    
Average Humidity 71    
Maximum Humidity 94    
Minimum Humidity 41    
Precipitation  
Precipitation 0.00 in 0.07 in - ()
Sea Level Pressure  
Sea Level Pressure 29.94 in    
Wind  
Wind Speed 4 mph ()    
Max Wind Speed 13 mph    
Max Gust Speed 18 mph    
Visibility 15.0 miles    
Events      
Averages and records for this station are not official NWS values.
T = Trace of Precipitation, MM = Missing Value Source: Averaged Metar Reports

Daily Weather History Graph

Daily Weather History Graph

Search for Another Location

Airport or City:

Astronomy

Jul. 06, 2013 Rise Set
Actual Time 5:13 AM PDT 9:15 PM PDT
Civil Twilight 4:31 AM PDT 9:56 PM PDT
Nautical Twilight 3:32 AM PDT 10:55 PM PDT
Astronomical Twilight 1:44 AM PDT 12:39 AM PDT
Moon 4:08 AM PDT (7/6) 7:54 PM PDT (7/6)
Length of Visible Light 17h 25m
Length of Day
16h 01m
Waning Crescent, 2% of the Moon is Illuminated
Jul 6
Waning Crescent
Jul 8
New
Jul 15
First Quarter
Jul 22
Full
Jul 29
Last Quarter

Hourly Weather History & Observations

Time (PDT) Temp. Dew Point Humidity Pressure Visibility Wind Dir Wind Speed Gust Speed Precip Events Conditions
12:00 AM 57.2 °F 55.4 °F 94% 29.99 in 15.0 mi SSE 2.3 mph - N/A   Clear
1:00 AM 57.2 °F 53.6 °F 88% 29.99 in 15.0 mi NNW 2.3 mph - N/A   Clear
2:00 AM 55.4 °F 53.6 °F 94% 29.99 in 15.0 mi North 2.3 mph - N/A   Clear
3:00 AM 55.4 °F 51.8 °F 88% 30.00 in 15.0 mi Calm Calm - N/A   Clear
4:00 AM 55.4 °F 51.8 °F 88% 29.99 in 15.0 mi Calm Calm - N/A   Partly Cloudy
5:00 AM 54 °F 52 °F 92% 29.99 in 28 mi North 1.2 mph - -   Clear
5:00 AM 53.6 °F 51.8 °F 94% 29.99 in 30.0 mi Calm Calm - N/A   Partly Cloudy
6:00 AM 55.4 °F 51.8 °F 88% 29.99 in 30.0 mi Calm Calm - N/A   Clear
7:00 AM 59.0 °F 53.6 °F 82% 29.99 in 30.0 mi North 2.3 mph - N/A   Clear
8:00 AM 62.6 °F 53.6 °F 72% 29.99 in 30.0 mi North 3.5 mph - N/A   Clear
9:00 AM 66.2 °F 55.4 °F 68% 29.98 in 30.0 mi WNW 4.6 mph - N/A   Clear
10:00 AM 68.0 °F 57.2 °F 68% 29.97 in 30.0 mi NW 3.5 mph - N/A   Partly Cloudy
11:00 AM 70 °F 56 °F 52% 29.96 in 28 mi West 5.8 mph - -   Scattered Clouds
11:00 AM 69.8 °F 55.4 °F 60% 29.96 in 30.0 mi WNW 5.8 mph - N/A   Partly Cloudy
12:00 PM 71.6 °F 59.0 °F 64% 29.95 in 30.0 mi WSW 5.8 mph - N/A   Partly Cloudy
1:00 PM 73.4 °F 60.8 °F 65% 29.94 in 30.0 mi SW 12.7 mph 18.4 mph N/A   Partly Cloudy
2:00 PM 73.4 °F 59.0 °F 61% 29.93 in 30.0 mi SW 11.5 mph 17.3 mph N/A   Partly Cloudy
3:00 PM 75.2 °F 59.0 °F 57% 29.92 in 30.0 mi SW 10.4 mph - N/A   Partly Cloudy
4:00 PM 77.0 °F 59.0 °F 54% 29.91 in 30.0 mi WSW 6.9 mph - N/A   Partly Cloudy
5:00 PM 77 °F 58 °F 41% 29.89 in 28 mi Calm Calm - -   Scattered Clouds
5:00 PM 77.0 °F 57.2 °F 50% 29.89 in 30.0 mi SW 11.5 mph - N/A   Partly Cloudy
6:00 PM 77.0 °F 59.0 °F 54% 29.87 in 30.0 mi SSW 6.9 mph - N/A   Partly Cloudy
7:00 PM 75.2 °F 59.0 °F 57% 29.86 in 30.0 mi SSW 10.4 mph - N/A   Partly Cloudy
8:00 PM 73.4 °F 59.0 °F 61% 29.86 in 30.0 mi SSW 11.5 mph - N/A   Partly Cloudy
9:00 PM 66.2 °F 57.2 °F 73% 29.87 in 30.0 mi SSW 6.9 mph - N/A   Scattered Clouds
10:00 PM 64.4 °F 57.2 °F 77% 29.88 in 30.0 mi WSW 4.6 mph - N/A   Scattered Clouds
11:00 PM 65 °F 56 °F 65% 29.89 in 15 mi West 2.3 mph - -   Clear
11:00 PM 64.4 °F 55.4 °F 73% 29.89 in 15.0 mi West 2.3 mph - N/A   Partly Cloudy